| time (UTC) | temp F | wind direction | speed knots | gust knots | rain 1hr in | rain 24hr in | rain mn in | humidity % | barometer mb |
| 20260505173210 | 54 | 296 | 0.9 | 1.7 | 0.00 | 0.00 | 0.00 | 28 | 1010.4 |
| 20260505172208 | 55 | 295 | 0.9 | 3.5 | 0.00 | 0.00 | 0.00 | 28 | 1010.4 |
| 20260505171205 | 55 | 314 | 1.7 | 6.1 | 0.00 | 0.00 | 0.00 | 26 | 1010.4 |
| 20260505165205 | 56 | 213 | 2.6 | 7.8 | 0.00 | 0.00 | 0.00 | 25 | 1010.4 |
| 20260505164208 | 56 | 244 | 3.5 | 7.8 | 0.00 | 0.00 | 0.00 | 26 | 1010.4 |
| 20260505163207 | 56 | 335 | 2.6 | 6.1 | 0.00 | 0.00 | 0.00 | 25 | 1010.4 |
| 20260505162206 | 56 | 269 | 2.6 | 7.0 | 0.00 | 0.00 | 0.00 | 27 | 1010.3 |
| 20260505161207 | 58 | 348 | 0.0 | 4.3 | 0.00 | 0.00 | 0.00 | 25 | 1010.4 |
| 20260505160201 | 57 | 80 | 1.7 | 5.2 | 0.00 | 0.00 | 0.00 | 24 | 1010.3 |
| 20260505153200 | 58 | 318 | 2.6 | 6.1 | 0.00 | 0.00 | 0.00 | 24 | 1010.5 |
| 20260505152154 | 58 | 331 | 2.6 | 7.8 | 0.00 | 0.00 | 0.00 | 25 | 1010.5 |
| 20260505151152 | 59 | 0 | 1.7 | 4.3 | 0.00 | 0.00 | 0.00 | 30 | 1010.5 |
| 20260505150157 | 57 | 255 | 3.5 | 7.8 | 0.00 | 0.00 | 0.00 | 25 | 1010.5 |
| 20260505140138 | 59 | 339 | 1.7 | 6.1 | 0.00 | 0.00 | 0.00 | 28 | 1010.7 |
| 20260505130134 | 56 | 275 | 3.5 | 7.8 | 0.00 | 0.00 | 0.00 | 35 | 1010.7 |
| 20260505124136 | 56 | 221 | 4.3 | 10.4 | 0.00 | 0.00 | 0.00 | 34 | 1010.7 |
| 20260505123135 | 56 | 333 | 4.3 | 9.6 | 0.00 | 0.00 | 0.00 | 34 | 1010.9 |
| 20260505122134 | 58 | 311 | 2.6 | 10.4 | 0.00 | 0.00 | 0.00 | 40 | 1010.9 |
| 20260505121131 | 55 | 200 | 3.5 | 7.8 | 0.00 | 0.00 | 0.00 | 35 | 1010.8 |
| 20260505120136 | 57 | 265 | 2.6 | 8.7 | 0.00 | 0.00 | 0.00 | 37 | 1010.9 |
| 20260505115132 | 56 | 265 | 3.5 | 8.7 | 0.00 | 0.00 | 0.00 | 38 | 1010.8 |
| 20260505114131 | 57 | 280 | 4.3 | 11.3 | 0.00 | 0.00 | 0.00 | 45 | 1010.8 |
| 20260505113132 | 55 | 224 | 3.5 | 7.0 | 0.00 | 0.00 | 0.00 | 40 | 1010.9 |
| 20260505112134 | 55 | 240 | 3.5 | 7.0 | 0.00 | 0.00 | 0.00 | 42 | 1011.0 |
| 20260505111135 | 54 | 227 | 4.3 | 8.7 | 0.00 | 0.00 | 0.00 | 42 | 1011.0 |
| 20260505110132 | 55 | 315 | 4.3 | 8.7 | 0.00 | 0.00 | 0.00 | 41 | 1011.0 |
| 20260505102134 | 54 | 322 | 5.2 | 10.4 | 0.00 | 0.00 | 0.00 | 40 | 1010.9 |
| 20260505101136 | 54 | 279 | 4.3 | 9.6 | 0.00 | 0.00 | 0.00 | 40 | 1010.9 |
| 20260505100135 | 53 | 262 | 4.3 | 13.9 | 0.00 | 0.00 | 0.00 | 42 | 1010.8 |
| 20260505095131 | 53 | 293 | 4.3 | 9.6 | 0.00 | 0.00 | 0.00 | 46 | 1010.9 |
| 20260505094122 | 53 | 261 | 4.3 | 13.9 | 0.00 | 0.00 | 0.00 | 45 | 1010.9 |
| 20260505093122 | 52 | 321 | 5.2 | 10.4 | 0.00 | 0.00 | 0.00 | 50 | 1010.8 |
| 20260505092125 | 52 | 302 | 4.3 | 10.4 | 0.00 | 0.00 | 0.00 | 46 | 1010.8 |
| 20260505091104 | 52 | 275 | 3.5 | 11.3 | 0.00 | 0.00 | 0.00 | 50 | 1010.8 |
| 20260505090109 | 52 | 306 | 3.5 | 10.4 | 0.00 | 0.00 | 0.00 | 51 | 1010.8 |
| 20260505085105 | 51 | 257 | 5.2 | 9.6 | 0.00 | 0.00 | 0.00 | 58 | 1010.7 |
| 20260505084106 | 51 | 243 | 4.3 | 10.4 | 0.00 | 0.00 | 0.00 | 56 | 1010.7 |
| 20260505083103 | 51 | 238 | 4.3 | 10.4 | 0.00 | 0.00 | 0.00 | 59 | 1010.7 |
| 20260505082106 | 50 | 300 | 3.5 | 7.0 | 0.00 | 0.00 | 0.00 | 61 | 1010.7 |
| 20260505081059 | 49 | 242 | 4.3 | 10.4 | 0.00 | 0.00 | 0.00 | 63 | 1010.6 |
| 20260505080057 | 49 | 261 | 3.5 | 10.4 | 0.00 | 0.00 | 0.00 | 68 | 1010.6 |
| 20260505075604 | 49 | 219 | 3.5 | 12.2 | 0.00 | 0.00 | 0.00 | 71 | 1010.6 |
| 20260505074054 | 48 | 258 | 3.5 | 10.4 | 0.00 | 0.00 | 0.00 | 72 | 1010.6 |
| 20260505073051 | 47 | 282 | 3.5 | 10.4 | 0.00 | 0.01 | 0.00 | 75 | 1010.4 |
| 20260505072053 | 47 | 253 | 5.2 | 13.0 | 0.00 | 0.02 | 0.00 | 74 | 1010.4 |
| 20260505071054 | 47 | 257 | 3.5 | 8.7 | 0.00 | 0.02 | 0.00 | 77 | 1010.4 |
| 20260505070051 | 46 | 295 | 4.3 | 8.7 | 0.00 | 0.02 | 0.00 | 80 | 1010.2 |
| 20260505065047 | 46 | 314 | 4.3 | 8.7 | 0.00 | 0.03 | 0.00 | 82 | 1010.3 |
| 20260505064049 | 45 | 254 | 5.2 | 11.3 | 0.00 | 0.04 | 0.00 | 84 | 1010.3 |
| 20260505063045 | 45 | 225 | 4.3 | 9.6 | 0.00 | 0.04 | 0.00 | 85 | 1010.2 |
| 20260505062040 | 44 | 212 | 4.3 | 8.7 | 0.00 | 0.04 | 0.00 | 87 | 1010.2 |
| 20260505061039 | 44 | 261 | 4.3 | 8.7 | 0.00 | 0.04 | 0.00 | 87 | 1010.2 |
| 20260505060038 | 44 | 267 | 4.3 | 8.7 | 0.00 | 0.04 | 0.00 | 86 | 1010.0 |
| 20260505055036 | 44 | 253 | 2.6 | 8.7 | 0.00 | 0.04 | 0.00 | 87 | 1009.9 |
| 20260505054039 | 44 | 330 | 5.2 | 9.6 | 0.00 | 0.04 | 0.00 | 87 | 1009.9 |
| 20260505053039 | 43 | 265 | 5.2 | 8.7 | 0.00 | 0.04 | 0.00 | 88 | 1009.8 |
| 20260505052035 | 43 | 250 | 2.6 | 6.1 | 0.00 | 0.04 | 0.00 | 89 | 1009.7 |
| 20260505051038 | 42 | 208 | 4.3 | 7.8 | 0.00 | 0.04 | 0.00 | 89 | 1009.7 |
| 20260505041035 | 42 | 265 | 2.6 | 6.1 | 0.00 | 0.04 | 0.00 | 90 | 1009.5 |
| 20260505040035 | 41 | 263 | 0.9 | 6.1 | 0.00 | 0.04 | 0.00 | 91 | 1009.3 |
| 20260505035038 | 41 | 302 | 2.6 | 7.0 | 0.00 | 0.05 | 0.00 | 91 | 1009.3 |
| 20260505034038 | 41 | 317 | 1.7 | 7.0 | 0.00 | 0.05 | 0.00 | 92 | 1009.3 |
| 20260505033039 | 41 | 286 | 1.7 | 7.0 | 0.00 | 0.06 | 0.00 | 92 | 1009.3 |
| 20260505032034 | 41 | 250 | 1.7 | 8.7 | 0.00 | 0.08 | 0.00 | 92 | 1009.4 |
| 20260505031035 | 41 | 254 | 3.5 | 7.8 | 0.00 | 0.08 | 0.00 | 93 | 1009.4 |
| 20260505030038 | 40 | 242 | 3.5 | 7.8 | 0.00 | 0.09 | 0.00 | 92 | 1009.4 |
| 20260505025037 | 40 | 271 | 3.5 | 7.0 | 0.00 | 0.09 | 0.00 | 92 | 1009.3 |
| 20260505024032 | 40 | 213 | 2.6 | 7.0 | 0.00 | 0.09 | 0.00 | 92 | 1009.3 |
| 20260505023033 | 41 | 259 | 3.5 | 6.1 | 0.00 | 0.09 | 0.00 | 91 | 1009.4 |
| 20260505022047 | 41 | 255 | 3.5 | 7.8 | 0.00 | 0.10 | 0.00 | 91 | 1009.5 |
| 20260505021051 | 41 | 261 | 3.5 | 11.3 | 0.00 | 0.11 | 0.00 | 92 | 1009.5 |
| 20260505020046 | 41 | 232 | 4.3 | 10.4 | 0.00 | 0.12 | 0.00 | 92 | 1009.4 |
| 20260505015037 | 41 | 256 | 3.5 | 13.0 | 0.00 | 0.12 | 0.00 | 93 | 1009.6 |
| 20260505014044 | 40 | 211 | 3.5 | 7.0 | 0.00 | 0.13 | 0.00 | 93 | 1009.5 |
| 20260505013044 | 40 | 219 | 3.5 | 6.1 | 0.00 | 0.15 | 0.00 | 93 | 1009.5 |
| 20260505012045 | 40 | 250 | 3.5 | 7.0 | 0.00 | 0.16 | 0.00 | 93 | 1009.5 |
| 20260505011035 | 40 | 206 | 3.5 | 6.1 | 0.00 | 0.18 | 0.00 | 93 | 1009.5 |
| 20260505010046 | 39 | 232 | 2.6 | 6.1 | 0.00 | 0.22 | 0.00 | 93 | 1009.5 |
| 20260505005044 | 39 | 267 | 0.9 | 3.5 | 0.00 | 0.27 | 0.00 | 92 | 1009.6 |
| 20260505004038 | 39 | 270 | 1.7 | 5.2 | 0.00 | 0.28 | 0.00 | 92 | 1009.6 |
| 20260505003040 | 40 | 257 | 1.7 | 5.2 | 0.00 | 0.28 | 0.00 | 92 | 1009.7 |
| 20260505002038 | 40 | 198 | 1.7 | 5.2 | 0.00 | 0.28 | 0.00 | 92 | 1009.9 |
| 20260505001042 | 39 | 207 | 2.6 | 5.2 | 0.00 | 0.28 | 0.00 | 92 | 1009.9 |
| 20260505000038 | 39 | 263 | 0.9 | 4.3 | 0.00 | 0.28 | 0.00 | 92 | 1009.8 |
| 20260504235037 | 38 | 224 | 2.6 | 5.2 | 0.00 | 0.30 | 0.00 | 92 | 1009.7 |
| 20260504234031 | 38 | 217 | 2.6 | 6.1 | 0.00 | 0.31 | 0.00 | 91 | 1009.7 |
| 20260504233027 | 37 | 227 | 1.7 | 4.3 | 0.00 | 0.33 | 0.00 | 90 | 1009.9 |
| 20260504232011 | 38 | 225 | 1.7 | 4.3 | 0.00 | 0.35 | 0.00 | 89 | 1010.1 |
| 20260504231007 | 38 | 216 | 1.7 | 4.3 | 0.00 | 0.35 | 0.00 | 88 | 1010.1 |
| 20260504230022 | 38 | 221 | 1.7 | 4.3 | 0.00 | 0.35 | 0.00 | 87 | 1010.1 |
| 20260504225006 | 38 | 226 | 1.7 | 4.3 | 0.00 | 0.35 | 0.00 | 85 | 1010.1 |
| 20260504224006 | 39 | 214 | 1.7 | 5.2 | 0.00 | 0.35 | 0.00 | 83 | 1010.2 |
| 20260504223007 | 40 | 212 | 1.7 | 5.2 | 0.00 | 0.35 | 0.00 | 82 | 1010.2 |
| 20260504222007 | 40 | 220 | 2.6 | 4.3 | 0.00 | 0.35 | 0.00 | 81 | 1010.2 |
| 20260504221007 | 40 | 242 | 2.6 | 6.1 | 0.00 | 0.35 | 0.00 | 80 | 1010.2 |
| 20260504220010 | 40 | 263 | 2.6 | 7.0 | 0.00 | 0.35 | 0.00 | 79 | 1010.3 |
| 20260504215009 | 40 | 235 | 2.6 | 5.2 | 0.00 | 0.35 | 0.35 | 78 | 1010.2 |
| 20260504214006 | 41 | 213 | 2.6 | 5.2 | 0.00 | 0.35 | 0.35 | 77 | 1010.3 |
| 20260504213003 | 41 | 225 | 2.6 | 5.2 | 0.00 | 0.35 | 0.35 | 77 | 1010.2 |
| 20260504212010 | 41 | 215 | 1.7 | 4.3 | 0.00 | 0.35 | 0.35 | 76 | 1010.3 |
| 20260504210951 | 42 | 219 | 1.7 | 4.3 | 0.00 | 0.35 | 0.35 | 74 | 1010.3 |
| 20260504205951 | 42 | 225 | 2.6 | 5.2 | 0.00 | 0.35 | 0.35 | 73 | 1010.3 |
| 20260504204951 | 42 | 231 | 2.6 | 6.1 | 0.00 | 0.35 | 0.35 | 73 | 1010.2 |
| 20260504203945 | 43 | 211 | 1.7 | 5.2 | 0.00 | 0.35 | 0.35 | 73 | 1010.3 |
| 20260504202942 | 43 | 223 | 1.7 | 5.2 | 0.00 | 0.35 | 0.35 | 72 | 1010.4 |
| 20260504201947 | 44 | 215 | 1.7 | 5.2 | 0.00 | 0.35 | 0.35 | 71 | 1010.3 |
| 20260504200934 | 45 | 243 | 1.7 | 3.5 | 0.00 | 0.35 | 0.35 | 70 | 1010.4 |
| 20260504195932 | 45 | 240 | 1.7 | 6.1 | 0.00 | 0.35 | 0.35 | 68 | 1010.3 |
| 20260504194938 | 46 | 222 | 3.5 | 6.1 | 0.00 | 0.35 | 0.35 | 67 | 1010.2 |
| 20260504193932 | 47 | 224 | 3.5 | 7.8 | 0.00 | 0.35 | 0.35 | 66 | 1010.3 |
| 20260504192935 | 47 | 212 | 2.6 | 5.2 | 0.00 | 0.35 | 0.35 | 65 | 1010.0 |
| 20260504191932 | 48 | 225 | 3.5 | 6.1 | 0.00 | 0.35 | 0.35 | 63 | 1010.0 |
| 20260504190935 | 49 | 242 | 3.5 | 8.7 | 0.00 | 0.35 | 0.35 | 61 | 1010.0 |
| 20260504185938 | 49 | 247 | 3.5 | 9.6 | 0.00 | 0.35 | 0.35 | 60 | 1010.0 |
| 20260504184938 | 50 | 269 | 4.3 | 7.8 | 0.00 | 0.35 | 0.35 | 58 | 1009.8 |
| 20260504183934 | 50 | 240 | 3.5 | 7.0 | 0.00 | 0.35 | 0.35 | 57 | 1009.8 |
| 20260504182939 | 51 | 233 | 5.2 | 9.6 | 0.00 | 0.35 | 0.35 | 56 | 1009.6 |
| 20260504181923 | 52 | 247 | 5.2 | 10.4 | 0.00 | 0.35 | 0.35 | 55 | 1009.6 |
| 20260504180924 | 52 | 231 | 6.1 | 18.2 | 0.00 | 0.35 | 0.35 | 54 | 1009.6 |
| 20260504175922 | 53 | 260 | 5.2 | 12.2 | 0.00 | 0.35 | 0.35 | 52 | 1009.6 |
| 20260504174920 | 54 | 221 | 6.1 | 12.2 | 0.00 | 0.35 | 0.35 | 52 | 1009.4 |